When you browse on this site, cookies collect data to enhance your experience and personalize the content and advertising you see.
Visit our Privacy Policy to learn more. By continuing to use the site, you agree to this use of cookies and data.
  • In Portugal
  • List of Countries
  • For 7 days
  • Water Temperature
  • Satellite Maps
  • Weather Map
  • Weather Widgets
  • user-avatar
    Login

    Hourly Weather Cork

    Today, 19 January, Saturday

    Time Temperature Precipitation Wind Pressure Humidity
    00:00 +5°C° 0 mm 2 mps 750 mmHg 93%
    01:00 +5°C° 0 mm 2 mps 750 mmHg 93%
    02:00 +5°C° 0 mm 2 mps 750 mmHg 93%
    03:00 +5°C° 0 mm 2 mps 750 mmHg 94%
    04:00 +5°C° 0 mm 2 mps 750 mmHg 94%
    05:00 +4°C° 0 mm 2 mps 750 mmHg 94%
    06:00 +4°C° 0 mm 2 mps 750 mmHg 94%
    07:00 +5°C° 0 mm 2 mps 750 mmHg 94%
    08:00 +6°C° 0 mm 1 mps 751 mmHg 95%
    09:00 +7°C° 0 mm 1 mps 751 mmHg 92%
    10:00 +8°C° 0 mm 1 mps 751 mmHg 89%
    11:00 +10°C° 0 mm 1 mps 751 mmHg 87%
    12:00 +9°C° 0.2 mm 2 mps 751 mmHg 86%
    13:00 +10°C° 0.2 mm 2 mps 751 mmHg 85%
    14:00 +10°C° 0.2 mm 2 mps 751 mmHg 84%
    15:00 +9°C° 0 mm 2 mps 752 mmHg 88%
    16:00 +8°C° 0 mm 2 mps 752 mmHg 91%
    17:00 +5°C° 0 mm 3 mps 753 mmHg 95%
    18:00 +5°C° 0 mm 3 mps 753 mmHg 95%
    19:00 +5°C° 0 mm 3 mps 754 mmHg 96%
    20:00 +5°C° 0 mm 3 mps 754 mmHg 96%
    21:00 +5°C° 0 mm 3 mps 755 mmHg 95%
    22:00 +7°C° 0 mm 3 mps 755 mmHg 94%
    23:00 +7°C° 0 mm 3 mps 756 mmHg 93%

    Tomorrow, 20 January, Sunday

    Time Temperature Precipitation Wind Pressure Humidity
    00:00 +7°C° 0 mm 3 mps 757 mmHg 93%
    01:00 +7°C° 0 mm 3 mps 757 mmHg 93%
    02:00 +6°C° 0 mm 4 mps 758 mmHg 94%
    03:00 +6°C° 0.1 mm 5 mps 758 mmHg 91%
    04:00 +5°C° 0.1 mm 7 mps 759 mmHg 89%
    05:00 +5°C° 0.1 mm 8 mps 760 mmHg 87%
    06:00 +4°C° 0.2 mm 8 mps 761 mmHg 86%
    07:00 +3°C° 0.2 mm 9 mps 762 mmHg 85%
    08:00 +3°C° 0.2 mm 9 mps 763 mmHg 84%
    09:00 +3°C° 0 mm 9 mps 764 mmHg 81%
    10:00 +3°C° 0 mm 9 mps 764 mmHg 78%
    11:00 +3°C° 0 mm 9 mps 765 mmHg 74%
    12:00 +4°C° 0 mm 8 mps 765 mmHg 73%
    13:00 +4°C° 0 mm 7 mps 766 mmHg 71%
    14:00 +4°C° 0 mm 6 mps 766 mmHg 69%
    15:00 +3°C° 0 mm 5 mps 767 mmHg 73%
    16:00 +3°C° 0 mm 4 mps 767 mmHg 77%
    17:00 +2°C° 0 mm 3 mps 768 mmHg 81%
    18:00 +2°C° 0 mm 3 mps 768 mmHg 83%
    19:00 +1°C° 0 mm 3 mps 769 mmHg 84%
    20:00 +1°C° 0 mm 3 mps 769 mmHg 86%
    21:00 +1°C° 0 mm 3 mps 769 mmHg 86%
    22:00 0°C° 0 mm 3 mps 769 mmHg 86%
    23:00 +1°C° 0 mm 2 mps 770 mmHg 85%

    Day after tomorrow, 21 January, Monday

    Time Temperature Precipitation Wind Pressure Humidity
    00:00 +1°C° 0 mm 2 mps 769 mmHg 85%
    01:00 +2°C° 0 mm 1 mps 769 mmHg 84%
    02:00 +2°C° 0 mm 1 mps 768 mmHg 83%
    03:00 +2°C° 0 mm 1 mps 768 mmHg 82%
    04:00 +2°C° 0 mm 1 mps 767 mmHg 81%
    05:00 +2°C° 0 mm 1 mps 766 mmHg 80%
    06:00 +2°C° 0 mm 2 mps 766 mmHg 79%
    07:00 +1°C° 0 mm 3 mps 765 mmHg 78%
    08:00 +2°C° 0 mm 3 mps 765 mmHg 77%
    09:00 +2°C° 0 mm 5 mps 764 mmHg 76%
    10:00 +4°C° 0 mm 6 mps 763 mmHg 75%
    11:00 +5°C° 0 mm 8 mps 761 mmHg 74%
    12:00 +5°C° 0.2 mm 9 mps 759 mmHg 77%
    13:00 +5°C° 0.2 mm 10 mps 757 mmHg 79%
    14:00 +4°C° 0.2 mm 11 mps 755 mmHg 81%
    15:00 +3°C° 1.8 mm 11 mps 755 mmHg 81%
    16:00 +2°C° 1.8 mm 11 mps 754 mmHg 82%
    17:00 +1°C° 1.8 mm 11 mps 753 mmHg 83%
    18:00 0°C° 0 mm 10 mps 754 mmHg 82%
    19:00 0°C° 0 mm 8 mps 754 mmHg 81%
    20:00 -1°C° 0 mm 6 mps 755 mmHg 80%
    21:00 -1°C° 0 mm 6 mps 755 mmHg 79%
    22:00 -1°C° 0 mm 6 mps 755 mmHg 78%
    23:00 -1°C° 0 mm 6 mps 755 mmHg 77%

    22 January, Tuesday

    Time Temperature Precipitation Wind Pressure Humidity
    00:00 -1°C° 0.1 mm 6 mps 754 mmHg 79%
    01:00 -1°C° 0.1 mm 6 mps 754 mmHg 80%
    02:00 -1°C° 0.1 mm 6 mps 753 mmHg 81%
    03:00 -1°C° 0.1 mm 6 mps 753 mmHg 81%
    04:00 0°C° 0.1 mm 5 mps 753 mmHg 81%
    05:00 0°C° 0.1 mm 5 mps 752 mmHg 81%
    06:00 -1°C° 0.3 mm 6 mps 753 mmHg 81%
    07:00 -1°C° 0.3 mm 6 mps 753 mmHg 80%
    08:00 -1°C° 0.3 mm 6 mps 753 mmHg 79%
    09:00 -1°C° 0.1 mm 7 mps 753 mmHg 77%
    10:00 0°C° 0.1 mm 7 mps 754 mmHg 75%
    11:00 0°C° 0.1 mm 7 mps 754 mmHg 73%
    12:00 0°C° 0.1 mm 7 mps 754 mmHg 74%
    13:00 0°C° 0.1 mm 7 mps 754 mmHg 74%
    14:00 0°C° 0.1 mm 7 mps 754 mmHg 75%
    15:00 +1°C° 0.1 mm 6 mps 754 mmHg 77%
    16:00 +1°C° 0.1 mm 6 mps 755 mmHg 79%
    17:00 0°C° 0.1 mm 5 mps 755 mmHg 81%
    18:00 0°C° 0.1 mm 5 mps 755 mmHg 82%
    19:00 0°C° 0.1 mm 5 mps 755 mmHg 83%
    20:00 0°C° 0.1 mm 4 mps 755 mmHg 84%
    21:00 0°C° 0 mm 4 mps 755 mmHg 85%
    22:00 0°C° 0 mm 4 mps 755 mmHg 86%
    23:00 +1°C° 0 mm 3 mps 755 mmHg 87%

    23 January, Wednesday

    Time Temperature Precipitation Wind Pressure Humidity
    00:00 0°C° 0 mm 4 mps 755 mmHg 88%
    01:00 0°C° 0 mm 4 mps 755 mmHg 88%
    02:00 0°C° 0 mm 4 mps 755 mmHg 88%
    03:00 0°C° 0 mm 4 mps 755 mmHg 88%
    04:00 0°C° 0 mm 4 mps 755 mmHg 87%
    05:00 0°C° 0 mm 4 mps 755 mmHg 87%
    06:00 0°C° 0 mm 4 mps 756 mmHg 87%
    07:00 0°C° 0 mm 4 mps 756 mmHg 87%
    08:00 +1°C° 0 mm 3 mps 756 mmHg 87%
    09:00 +1°C° 0 mm 4 mps 756 mmHg 85%
    10:00 +3°C° 0 mm 4 mps 757 mmHg 82%
    11:00 +3°C° 0 mm 5 mps 757 mmHg 80%
    12:00 +3°C° 0 mm 5 mps 757 mmHg 80%
    13:00 +3°C° 0 mm 5 mps 757 mmHg 81%
    14:00 +3°C° 0 mm 5 mps 757 mmHg 81%
    15:00 +2°C° 0 mm 5 mps 757 mmHg 83%
    16:00 +1°C° 0 mm 5 mps 757 mmHg 84%
    17:00 0°C° 0 mm 5 mps 758 mmHg 86%
    18:00 0°C° 0 mm 5 mps 758 mmHg 86%
    19:00 0°C° 0 mm 5 mps 759 mmHg 86%
    20:00 0°C° 0 mm 5 mps 759 mmHg 86%
    21:00 -1°C° 0 mm 5 mps 760 mmHg 87%
    22:00 -1°C° 0 mm 5 mps 760 mmHg 87%
    23:00 -1°C° 0 mm 5 mps 760 mmHg 88%

    24 January, Thursday

    Time Temperature Precipitation Wind Pressure Humidity
    00:00 -1°C° 0 mm 4 mps 761 mmHg 90%
    01:00 -2°C° 0 mm 4 mps 761 mmHg 91%
    02:00 -2°C° 0 mm 4 mps 761 mmHg 93%
    03:00 -1°C° 0 mm 3 mps 762 mmHg 93%
    04:00 -1°C° 0 mm 3 mps 762 mmHg 93%
    05:00 -2°C° 0 mm 3 mps 763 mmHg 93%
    06:00 -1°C° 0 mm 3 mps 763 mmHg 93%
    07:00 -1°C° 0 mm 2 mps 764 mmHg 92%
    08:00 -1°C° 0 mm 2 mps 764 mmHg 91%
    09:00 +1°C° 0 mm 2 mps 764 mmHg 86%
    10:00 +4°C° 0 mm 1 mps 765 mmHg 82%
    11:00 +5°C° 0 mm 1 mps 765 mmHg 77%
    12:00 +6°C° 0 mm 1 mps 765 mmHg 77%
    13:00 +6°C° 0 mm 1 mps 765 mmHg 77%
    14:00 +6°C° 0 mm 1 mps 765 mmHg 77%
    15:00 +5°C° 0 mm 1 mps 765 mmHg 80%
    16:00 +4°C° 0 mm 1 mps 765 mmHg 83%
    17:00 +3°C° 0 mm 1 mps 765 mmHg 87%
    18:00 +3°C° 0 mm 1 mps 765 mmHg 86%
    19:00 +4°C° 0 mm 1 mps 765 mmHg 85%
    20:00 +4°C° 0 mm 1 mps 766 mmHg 84%
    21:00 +4°C° 0 mm 1 mps 766 mmHg 85%
    22:00 +4°C° 0 mm 2 mps 765 mmHg 86%
    23:00 +4°C° 0 mm 2 mps 765 mmHg 87%
    Show more